User: anonymous   Login
Location: Unspecified
(0.0000°N, 0.0000°E)
Time: 19:01:39
(UTC+00:00)
Language:

DANDE - Orbit

View from above orbital plane
View from above orbital plane
View from above satellite
View from above satellite

Ground track
Ground track

The orbit data is extracted from the following two-line orbital elements,

1 39267U 13055C   17084.93839093 +.00003366 +00000-0 +99589-4 0  9997
2 39267 081.0092 111.1894 0716361 150.1170 214.3005 14.16469638176909
Epoch (UTC): 25 March 2017 22:31:16
Eccentricity: 0.0716361
inclination: 81.0092°
perigee height: 320 km
apogee height: 1354 km
right ascension of ascending node: 111.1894°
argument of perigee: 150.1170°
revolutions per day: 14.16469638
mean anomaly at epoch: 214.3005°
orbit number at epoch: 17690

The dashed part of the orbit path shows where the satellite is in the earth's shadow,  

DLR